{"data":{"norad_id":60539,"epoch":"2026-05-25T03:26:26.235744Z","epoch_age_seconds":59792,"freshness":"FRESH","line1":"1 60539U 24149BZ  26145.14335921  .00002849  00000+0  23502-3 0  9996","line2":"2 60539  97.6759 222.4268 0005992 156.0794 204.0709 14.99799841 96661","mean_motion":14.99799841,"eccentricity":0.0005992,"inclination_deg":97.6759,"raan_deg":222.4268,"arg_perigee_deg":156.0794,"mean_anomaly_deg":204.0709,"bstar":0.00023502,"rev_number":9666,"period_min":96.012811885609,"perigee_km":563.35240721954,"apogee_km":571.67607566729,"semimajor_km":6945.6512414434,"source":"CELESTRAK","updated_at":"2026-05-25T13:38:02.148616Z"}}